THOR ABLESTAR DEB, 406

Orbit data source: Space-Track

THOR ABLESTAR DEB, 406 is space debris in LEO originally from a launch on Thu, 29 Jun 1961 UTC launched from the Air Force Eastern Test Range (AFETR). Debris objects in space refer to the collection of defunct objects orbiting the Earth. Examples of debris include non-operational satellites, rocket bodies, and fragments generated from explosions, collisions, or faulty payload assembly.

Loading next visibility...
Identifier
406, 1961-015EF
Orbit
LEO
Country
Flag of USUS
Related business
Manufacturer
Unknown
Mission
Spacecraft
Bus & Motor
Unknown
Mass
Unknown
Launch date (UTC)
1961-06-29 (65 years ago)
Launch vehicle
Unknown
Launch site
Air Force Eastern Test Range (AFETR)
Object type
Payload
Rocket body
Debris
Shape & HBR
Unknown shape, 0.1 m
Radar Cross Section
Small (<0.1 m²)

Expand to show TLE details & history
Last TLE update: 18 hours ago

TLE from 18 hours ago
0 THOR ABLESTAR DEB
1 00406U 61015EF  26140.19474212  .00000343  00000-0  45573-3 0  9993
2 00406  66.7785  59.3637 0111854  52.2574  95.1383 13.69592273217364
Epoch: 2026-05-20T04:40Z
TLE epoch observation values (Epoch: 2026-05-20T04:40:25.719Z)
Latitude
28.60275°
Longitude
-82.05963°
Altitude
1,012.028 km
Speed
7.345 km/s
True Right ascension
15h 03m 37s
True Declination
28° 27' 48"
Sunlit
Object was in full shadow at epoch
Visualization orbit readout
Latitude
Unknown
Longitude
Unknown
Altitude
Unknown
Speed
Unknown
Apparent Right ascension
Unknown
Apparent Declination
Unknown
Sunlit
N/A
Visualization observer readout
Local Sidereal Time
07:39:22
Azimuth
Unknown
Elevation
Unknown
Doppler factor
Unknown
Orbital elements
Apogee altitude
1,081.968 km
Perigee altitude
916.926 km
Semi-major axis
7,377.584 km
Eccentricity
0.01119
Inclination
66.7785°
RAAN
59.3637°
Arg. of periapsis
52.2574°
True anomaly
96.4132°
Mean anomaly
95.1383°
Eccentric anomaly
95.77592°
Mean motion
3.42509 °/min
Orbital period
105.11 mins
BSTAR
0.00045573

Documentation

Showing up to 5 results
|